AAL100 SKCG-MMMY

Flight info

Callsign AAL100
Flight time 4h 1m
Altitude 36000
Route KOPGI2A KOPGI DCT ENPAN DCT CRUTA DCT CTM UJ61 CPE DCT COFRE UM206 NABDA DCT RETOS RETOS1A
Aircraft A21N/M-SDE3FGHIRWY/LB1

Departure

Time 2026-05-08 21:59
Airport Rafael Nuñez International Airport (SKCG)

Arrival

Time 2026-05-09 02:01
Airport Monterrey International Airport (MMMY)
Time Latitude Longitude Altitude Speed Heading
2026-05-08 21:53 10.44632 -75.51453 24 ft 0 kts 182°
2026-05-08 21:55 10.44596 -75.51450 24 ft 8 kts 145°
2026-05-08 21:56 10.44543 -75.51329 23 ft 10 kts 108°
2026-05-08 21:56 10.44487 -75.51281 23 ft 11 kts 168°
2026-05-08 21:56 10.44406 -75.51283 23 ft 12 kts 182°
2026-05-08 21:56 10.44264 -75.51290 23 ft 26 kts 183°
2026-05-08 21:57 10.44085 -75.51299 22 ft 25 kts 182°
2026-05-08 21:57 10.43913 -75.51305 22 ft 24 kts 182°
2026-05-08 21:57 10.43747 -75.51311 21 ft 23 kts 182°
2026-05-08 21:57 10.43586 -75.51318 21 ft 22 kts 182°
2026-05-08 21:58 10.43430 -75.51325 21 ft 21 kts 183°
2026-05-08 21:58 10.43279 -75.51328 21 ft 21 kts 167°
2026-05-08 21:58 10.43157 -75.51251 21 ft 20 kts 143°
2026-05-08 21:58 10.43067 -75.51296 21 ft 16 kts 289°
2026-05-08 21:59 10.43198 -75.51331 21 ft 38 kts
2026-05-08 21:59 10.43722 -75.51312 22 ft 111 kts
2026-05-08 21:59 10.44713 -75.51274 63 ft 166 kts
2026-05-08 21:59 10.45905 -75.51233 656 ft 173 kts
2026-05-08 22:00 10.47046 -75.51202 1601 ft 163 kts 360°
2026-05-08 22:00 10.48129 -75.51522 2252 ft 174 kts 329°
2026-05-08 22:00 10.48898 -75.52534 2737 ft 197 kts 289°
2026-05-08 22:00 10.49043 -75.53979 3266 ft 216 kts 274°
2026-05-08 22:01 10.49142 -75.55586 3713 ft 242 kts 275°
2026-05-08 22:01 10.49268 -75.57359 4330 ft 263 kts 275°
2026-05-08 22:01 10.49406 -75.59265 5030 ft 280 kts 274°
2026-05-08 22:01 10.49548 -75.61227 5688 ft 283 kts 274°
2026-05-08 22:02 10.49692 -75.63241 6229 ft 290 kts 274°
2026-05-08 22:02 10.49838 -75.65291 6867 ft 294 kts 274°
2026-05-08 22:02 10.49986 -75.67366 7468 ft 297 kts 275°
2026-05-08 22:02 10.50135 -75.69467 8034 ft 301 kts 275°
2026-05-08 22:03 10.50288 -75.71595 8598 ft 305 kts 275°
2026-05-08 22:03 10.50444 -75.73745 9185 ft 308 kts 276°
2026-05-08 22:03 10.50601 -75.75917 9726 ft 311 kts 276°
2026-05-08 22:03 10.50762 -75.78120 10176 ft 318 kts 276°
2026-05-08 22:04 10.50929 -75.80408 10428 ft 332 kts 276°
2026-05-08 22:04 10.51102 -75.82793 10679 ft 346 kts 276°
2026-05-08 22:04 10.51281 -75.85272 10904 ft 359 kts 276°
2026-05-08 22:04 10.51467 -75.87840 11132 ft 371 kts 276°
2026-05-08 22:05 10.51658 -75.90499 11346 ft 384 kts 275°
2026-05-08 22:05 10.51854 -75.93241 11548 ft 395 kts 275°
2026-05-08 22:05 10.52056 -75.96062 11740 ft 406 kts 275°
2026-05-08 22:05 10.52263 -75.98959 11926 ft 416 kts 275°
2026-05-08 22:06 10.52474 -76.01925 12098 ft 426 kts 275°
2026-05-08 22:06 10.52690 -76.04948 12388 ft 431 kts 275°
2026-05-08 22:06 10.52906 -76.07994 12787 ft 434 kts 275°
2026-05-08 22:06 10.53123 -76.11053 13175 ft 436 kts 275°
2026-05-08 22:07 10.53342 -76.14127 13548 ft 438 kts 275°
2026-05-08 22:07 10.53563 -76.17217 13900 ft 441 kts 275°
2026-05-08 22:07 10.53785 -76.20323 14251 ft 443 kts 275°
2026-05-08 22:07 10.54006 -76.23441 14609 ft 444 kts 275°
2026-05-08 22:08 10.54228 -76.26572 14950 ft 446 kts 275°
2026-05-08 22:08 10.54450 -76.29712 15306 ft 447 kts 275°
2026-05-08 22:08 10.54683 -76.32863 15618 ft 449 kts 277°
2026-05-08 22:08 10.55329 -76.35952 15893 ft 449 kts 289°
2026-05-08 22:09 10.56624 -76.38817 16218 ft 447 kts 302°
2026-05-08 22:09 10.58451 -76.41356 16523 ft 446 kts 311°
2026-05-08 22:09 10.60441 -76.43777 16803 ft 447 kts 311°
2026-05-08 22:09 10.62461 -76.46195 17051 ft 450 kts 311°
2026-05-08 22:10 10.64488 -76.48625 17310 ft 452 kts 311°
2026-05-08 22:10 10.66516 -76.51070 17579 ft 453 kts 311°
2026-05-08 22:10 10.68547 -76.53529 17829 ft 455 kts 311°
2026-05-08 22:10 10.70583 -76.56004 18062 ft 457 kts 311°
2026-05-08 22:11 10.72628 -76.58492 18283 ft 459 kts 311°
2026-05-08 22:11 10.74678 -76.60990 18503 ft 461 kts 311°
2026-05-08 22:11 10.76738 -76.63502 18711 ft 463 kts 311°
2026-05-08 22:11 10.78807 -76.66027 18908 ft 466 kts 311°
2026-05-08 22:12 10.80885 -76.68563 19103 ft 468 kts 311°
2026-05-08 22:12 10.82971 -76.71109 19312 ft 469 kts 311°
2026-05-08 22:12 10.85065 -76.73666 19513 ft 471 kts 311°
2026-05-08 22:12 10.87167 -76.76232 19712 ft 472 kts 311°
2026-05-08 22:13 10.89273 -76.78805 19904 ft 474 kts 311°
2026-05-08 22:13 10.91385 -76.81387 20082 ft 476 kts 311°
2026-05-08 22:13 10.93505 -76.83978 20256 ft 477 kts 311°
2026-05-08 22:13 10.95632 -76.86578 20439 ft 479 kts 311°
2026-05-08 22:14 10.97765 -76.89187 20610 ft 481 kts 311°
2026-05-08 22:14 10.99905 -76.91806 20774 ft 482 kts 311°
2026-05-08 22:14 11.02055 -76.94436 20923 ft 484 kts 311°
2026-05-08 22:14 11.04213 -76.97077 21068 ft 486 kts 311°
2026-05-08 22:15 11.06378 -76.99727 21237 ft 488 kts 311°
2026-05-08 22:15 11.08549 -77.02387 21398 ft 489 kts 311°
2026-05-08 22:15 11.10725 -77.05052 21552 ft 490 kts 311°
2026-05-08 22:15 11.12908 -77.07727 21700 ft 492 kts 312°
2026-05-08 22:16 11.15096 -77.10410 21856 ft 493 kts 311°
2026-05-08 22:16 11.17289 -77.13097 22017 ft 494 kts 312°
2026-05-08 22:16 11.19485 -77.15790 22195 ft 494 kts 312°
2026-05-08 22:16 11.21678 -77.18481 22428 ft 493 kts 312°
2026-05-08 22:17 11.23867 -77.21165 22678 ft 492 kts 311°
2026-05-08 22:17 11.26050 -77.23843 22935 ft 491 kts 311°
2026-05-08 22:17 11.28227 -77.26515 23184 ft 490 kts 311°
2026-05-08 22:17 11.30399 -77.29182 23435 ft 489 kts 311°
2026-05-08 22:18 11.32566 -77.31844 23695 ft 488 kts 311°
2026-05-08 22:18 11.34729 -77.34501 23944 ft 487 kts 311°
2026-05-08 22:18 11.36889 -77.37153 24201 ft 486 kts 311°
2026-05-08 22:18 11.39045 -77.39803 24458 ft 485 kts 311°
2026-05-08 22:19 11.41197 -77.42449 24730 ft 484 kts 311°
2026-05-08 22:19 11.43345 -77.45090 25021 ft 483 kts 311°
2026-05-08 22:19 11.45479 -77.47715 25316 ft 481 kts 311°
2026-05-08 22:19 11.47608 -77.50335 25598 ft 480 kts 311°
2026-05-08 22:20 11.49732 -77.52949 25873 ft 479 kts 311°
2026-05-08 22:20 11.51851 -77.55557 26160 ft 477 kts 311°
2026-05-08 22:20 11.53964 -77.58159 26438 ft 476 kts 311°
2026-05-08 22:20 11.56073 -77.60756 26723 ft 475 kts 311°
2026-05-08 22:21 11.58176 -77.63347 27008 ft 474 kts 311°
2026-05-08 22:21 11.60274 -77.65931 27300 ft 472 kts 310°
2026-05-08 22:21 11.62365 -77.68510 27591 ft 471 kts 310°
2026-05-08 22:21 11.64448 -77.71078 27874 ft 470 kts 310°
2026-05-08 22:22 11.66530 -77.73645 28158 ft 469 kts 310°
2026-05-08 22:22 11.68605 -77.76205 28462 ft 468 kts 310°
2026-05-08 22:22 11.70673 -77.78756 28773 ft 466 kts 310°
2026-05-08 22:22 11.72734 -77.81301 29073 ft 465 kts 310°
2026-05-08 22:23 11.74794 -77.83844 29363 ft 464 kts 310°
2026-05-08 22:23 11.76850 -77.86382 29667 ft 463 kts 310°
2026-05-08 22:23 11.78901 -77.88915 29976 ft 462 kts 310°
2026-05-08 22:23 11.80942 -77.91436 30300 ft 461 kts 310°
2026-05-08 22:24 11.82978 -77.93951 30634 ft 459 kts 310°
2026-05-08 22:24 11.85036 -77.96495 30967 ft 458 kts 310°
2026-05-08 22:24 11.87057 -77.98996 31296 ft 456 kts 310°
2026-05-08 22:24 11.89044 -78.01453 31632 ft 455 kts 310°
2026-05-08 22:25 11.91054 -78.03939 31946 ft 454 kts 310°
2026-05-08 22:25 11.93060 -78.06423 32235 ft 454 kts 310°
2026-05-08 22:25 11.95065 -78.08904 32521 ft 453 kts 310°
2026-05-08 22:25 11.97068 -78.11384 32818 ft 453 kts 310°
2026-05-08 22:26 11.99069 -78.13862 33139 ft 452 kts 309°
2026-05-08 22:26 12.01066 -78.16335 33481 ft 451 kts 309°
2026-05-08 22:26 12.03058 -78.18803 33821 ft 450 kts 309°
2026-05-08 22:26 12.05044 -78.21265 34144 ft 449 kts 309°
2026-05-08 22:27 12.07028 -78.23725 34434 ft 449 kts 309°
2026-05-08 22:27 12.09011 -78.26186 34689 ft 449 kts 309°
2026-05-08 22:27 12.11025 -78.28685 34929 ft 450 kts 309°
2026-05-08 22:27 12.12985 -78.31117 35144 ft 451 kts 309°
2026-05-08 22:28 12.14977 -78.33589 35349 ft 451 kts 309°
2026-05-08 22:28 12.16973 -78.36127 35537 ft 452 kts 307°
2026-05-08 22:28 12.18831 -78.38727 35707 ft 454 kts 305°
2026-05-08 22:28 12.20632 -78.41323 35830 ft 455 kts 305°
2026-05-08 22:29 12.22483 -78.44005 35830 ft 456 kts 305°
2026-05-08 22:29 12.26132 -78.49297 35832 ft 456 kts 305°
2026-05-08 22:30 12.29787 -78.54597 35833 ft 456 kts 305°
2026-05-08 22:30 12.33442 -78.59897 35835 ft 456 kts 305°
2026-05-08 22:31 12.37095 -78.65198 35838 ft 456 kts 305°
2026-05-08 22:31 12.40741 -78.70490 35838 ft 455 kts 305°
2026-05-08 22:32 12.44384 -78.75778 35838 ft 455 kts 305°
2026-05-08 22:32 12.48027 -78.81072 35845 ft 456 kts 305°
2026-05-08 22:33 12.51680 -78.86382 35849 ft 457 kts 305°
2026-05-08 22:33 12.55333 -78.91691 35850 ft 457 kts 305°
2026-05-08 22:34 12.58984 -78.97006 35850 ft 457 kts 305°
2026-05-08 22:34 12.62635 -79.02322 35849 ft 458 kts 305°
2026-05-08 22:35 12.66296 -79.07655 35852 ft 459 kts 305°
2026-05-08 22:35 12.69993 -79.13044 35850 ft 465 kts 305°
2026-05-08 22:36 12.73708 -79.18463 35850 ft 465 kts 305°
2026-05-08 22:36 12.77421 -79.23882 35852 ft 465 kts 305°
2026-05-08 22:37 12.81131 -79.29298 35851 ft 465 kts 305°
2026-05-08 22:37 12.84843 -79.34721 35850 ft 466 kts 305°
2026-05-08 22:38 12.88559 -79.40155 35853 ft 466 kts 305°
2026-05-08 22:38 12.92277 -79.45596 35858 ft 467 kts 305°
2026-05-08 22:39 12.95997 -79.51041 35861 ft 466 kts 305°
2026-05-08 22:39 12.99710 -79.56479 35860 ft 466 kts 305°
2026-05-08 22:40 13.03420 -79.61916 35864 ft 466 kts 305°
2026-05-08 22:40 13.07129 -79.67355 35864 ft 466 kts 305°
2026-05-08 22:41 13.10837 -79.72797 35866 ft 466 kts 305°
2026-05-08 22:41 13.14548 -79.78244 35869 ft 466 kts 305°
2026-05-08 22:42 13.18258 -79.83696 35870 ft 467 kts 305°
2026-05-08 22:42 13.21971 -79.89155 35871 ft 467 kts 305°
2026-05-08 22:43 13.25685 -79.94617 35871 ft 466 kts 305°
2026-05-08 22:43 13.29390 -80.00069 35871 ft 466 kts 305°
2026-05-08 22:44 13.33087 -80.05514 35870 ft 466 kts 305°
2026-05-08 22:44 13.36786 -80.10964 35869 ft 466 kts 305°
2026-05-08 22:45 13.40485 -80.16421 35870 ft 466 kts 305°
2026-05-08 22:45 13.44184 -80.21880 35869 ft 466 kts 305°
2026-05-08 22:46 13.47883 -80.27341 35866 ft 466 kts 305°
2026-05-08 22:46 13.51580 -80.32802 35863 ft 466 kts 305°
2026-05-08 22:47 13.55270 -80.38258 35863 ft 465 kts 305°
2026-05-08 22:47 13.58962 -80.43717 35860 ft 465 kts 305°
2026-05-08 22:48 13.62647 -80.49172 35860 ft 465 kts 305°
2026-05-08 22:48 13.66332 -80.54632 35859 ft 466 kts 305°
2026-05-08 22:49 13.70021 -80.60098 35857 ft 466 kts 305°
2026-05-08 22:49 13.75562 -80.68316 35855 ft 467 kts 305°
2026-05-08 22:50 13.79251 -80.73792 35855 ft 466 kts 305°
2026-05-08 22:50 13.82933 -80.79262 35855 ft 465 kts 305°
2026-05-08 22:51 13.86608 -80.84726 35859 ft 465 kts 305°
2026-05-08 22:51 13.90291 -80.90203 35867 ft 466 kts 305°
2026-05-08 22:52 13.93975 -80.95686 35869 ft 466 kts 305°
2026-05-08 22:52 13.97662 -81.01175 35870 ft 466 kts 305°
2026-05-08 22:53 14.01343 -81.06662 35871 ft 466 kts 305°
2026-05-08 22:53 14.05021 -81.12148 35871 ft 466 kts 305°
2026-05-08 22:54 14.08698 -81.17636 35872 ft 466 kts 306°
2026-05-08 22:54 14.12377 -81.23128 35873 ft 466 kts 306°
2026-05-08 22:55 14.16055 -81.28622 35874 ft 466 kts 306°
2026-05-08 22:55 14.19732 -81.34120 35873 ft 466 kts 306°
2026-05-08 22:56 14.23403 -81.39613 35872 ft 466 kts 306°
2026-05-08 22:56 14.27073 -81.45106 35870 ft 466 kts 306°
2026-05-08 22:57 14.30742 -81.50604 35869 ft 466 kts 306°
2026-05-08 22:57 14.34412 -81.56107 35870 ft 467 kts 306°
2026-05-08 22:58 14.38083 -81.61614 35870 ft 467 kts 306°
2026-05-08 22:58 14.41753 -81.67123 35870 ft 467 kts 306°
2026-05-08 22:59 14.45423 -81.72635 35870 ft 467 kts 306°
2026-05-08 22:59 14.49093 -81.78151 35870 ft 466 kts 306°
2026-05-08 23:00 14.52756 -81.83662 35871 ft 466 kts 306°
2026-05-08 23:00 14.56418 -81.89175 35871 ft 466 kts 306°
2026-05-08 23:01 14.60080 -81.94692 35870 ft 466 kts 306°
2026-05-08 23:01 14.63743 -82.00214 35869 ft 466 kts 306°
2026-05-08 23:02 14.67404 -82.05736 35869 ft 466 kts 306°
2026-05-08 23:02 14.71057 -82.11249 35863 ft 466 kts 306°
2026-05-08 23:03 14.74713 -82.16773 35866 ft 465 kts 306°
2026-05-08 23:03 14.78365 -82.22292 35864 ft 465 kts 306°
2026-05-08 23:04 14.82013 -82.27810 35867 ft 465 kts 306°
2026-05-08 23:04 14.85657 -82.33327 35862 ft 465 kts 306°
2026-05-08 23:05 14.89301 -82.38846 35864 ft 465 kts 306°
2026-05-08 23:05 14.92943 -82.44367 35861 ft 465 kts 306°
2026-05-08 23:06 14.96584 -82.49889 35860 ft 465 kts 306°
2026-05-08 23:06 15.00221 -82.55409 35864 ft 465 kts 306°
2026-05-08 23:07 15.03855 -82.60930 35870 ft 465 kts 306°
2026-05-08 23:07 15.07490 -82.66457 35876 ft 465 kts 305°
2026-05-08 23:08 15.11124 -82.71983 35877 ft 465 kts 305°
2026-05-08 23:08 15.14757 -82.77514 35875 ft 466 kts 305°
2026-05-08 23:09 15.18390 -82.83049 35876 ft 465 kts 305°
2026-05-08 23:09 15.22019 -82.88583 35877 ft 465 kts 305°
2026-05-08 23:10 15.25643 -82.94120 35878 ft 465 kts 305°
2026-05-08 23:10 15.29169 -82.99725 35877 ft 465 kts 304°
2026-05-08 23:11 15.32672 -83.05347 35875 ft 465 kts 304°
2026-05-08 23:11 15.36181 -83.10973 35876 ft 466 kts 304°
2026-05-08 23:12 15.39696 -83.16606 35875 ft 466 kts 304°
2026-05-08 23:12 15.43210 -83.22237 35873 ft 466 kts 304°
2026-05-08 23:13 15.46719 -83.27862 35867 ft 465 kts 304°
2026-05-08 23:13 15.50218 -83.33478 35863 ft 464 kts 304°
2026-05-08 23:14 15.53715 -83.39093 35863 ft 465 kts 304°
2026-05-08 23:14 15.57215 -83.44716 35862 ft 465 kts 304°
2026-05-08 23:15 15.60717 -83.50346 35860 ft 465 kts 304°
2026-05-08 23:15 15.64219 -83.55984 35860 ft 466 kts 304°
2026-05-08 23:16 15.67724 -83.61627 35862 ft 465 kts 304°
2026-05-08 23:16 15.71222 -83.67263 35862 ft 465 kts 304°
2026-05-08 23:17 15.74716 -83.72900 35860 ft 465 kts 304°
2026-05-08 23:17 15.78208 -83.78535 35862 ft 464 kts 304°
2026-05-08 23:18 15.81697 -83.84173 35864 ft 464 kts 304°
2026-05-08 23:18 15.85183 -83.89810 35867 ft 465 kts 304°
2026-05-08 23:19 15.88670 -83.95451 35868 ft 465 kts 304°
2026-05-08 23:19 15.92160 -84.01099 35866 ft 465 kts 304°
2026-05-08 23:20 15.95646 -84.06748 35860 ft 465 kts 304°
2026-05-08 23:20 15.99127 -84.12392 35851 ft 464 kts 304°
2026-05-08 23:21 16.02606 -84.18040 35851 ft 464 kts 304°
2026-05-08 23:21 16.06080 -84.23681 35848 ft 464 kts 304°
2026-05-08 23:22 16.09553 -84.29325 35850 ft 464 kts 304°
2026-05-08 23:22 16.13030 -84.34980 35849 ft 465 kts 304°
2026-05-08 23:23 16.16508 -84.40640 35849 ft 465 kts 304°
2026-05-08 23:23 16.19983 -84.46303 35847 ft 465 kts 304°
2026-05-08 23:24 16.23454 -84.51962 35849 ft 464 kts 304°
2026-05-08 23:24 16.26919 -84.57616 35847 ft 464 kts 304°
2026-05-08 23:25 16.30383 -84.63272 35847 ft 464 kts 304°
2026-05-08 23:25 16.33845 -84.68930 35846 ft 464 kts 303°
2026-05-08 23:26 16.37310 -84.74597 35846 ft 464 kts 303°
2026-05-08 23:26 16.40796 -84.80303 35849 ft 464 kts 304°
2026-05-08 23:27 16.44254 -84.85967 35847 ft 464 kts 303°
2026-05-08 23:27 16.47708 -84.91631 35852 ft 464 kts 303°
2026-05-08 23:28 16.51162 -84.97298 35845 ft 464 kts 304°
2026-05-08 23:28 16.54616 -85.02968 35842 ft 464 kts 304°
2026-05-08 23:29 16.58064 -85.08634 35838 ft 464 kts 303°
2026-05-08 23:29 16.61510 -85.14301 35840 ft 463 kts 303°
2026-05-08 23:30 16.64953 -85.19969 35842 ft 463 kts 303°
2026-05-08 23:30 16.68400 -85.25647 35841 ft 464 kts 303°
2026-05-08 23:31 16.71840 -85.31319 35841 ft 463 kts 303°
2026-05-08 23:31 16.75277 -85.36992 35841 ft 463 kts 303°
2026-05-08 23:32 16.78713 -85.42664 35842 ft 463 kts 303°
2026-05-08 23:32 16.82148 -85.48340 35840 ft 463 kts 303°
2026-05-08 23:33 16.85580 -85.54018 35842 ft 463 kts 303°
2026-05-08 23:33 16.89010 -85.59696 35842 ft 463 kts 303°
2026-05-08 23:34 16.92438 -85.65376 35839 ft 463 kts 303°
2026-05-08 23:34 16.95866 -85.71061 35838 ft 463 kts 303°
2026-05-08 23:35 16.99298 -85.76754 35835 ft 463 kts 303°
2026-05-08 23:35 17.02729 -85.82452 35837 ft 464 kts 303°
2026-05-08 23:36 17.06158 -85.88152 35834 ft 464 kts 303°
2026-05-08 23:36 17.09583 -85.93851 35835 ft 463 kts 303°
2026-05-08 23:37 17.13005 -85.99551 35834 ft 464 kts 303°
2026-05-08 23:37 17.16427 -86.05254 35835 ft 464 kts 303°
2026-05-08 23:38 17.19847 -86.10955 35832 ft 464 kts 303°
2026-05-08 23:38 17.23269 -86.16666 35834 ft 464 kts 303°
2026-05-08 23:39 17.26689 -86.22379 35834 ft 464 kts 303°
2026-05-08 23:39 17.30107 -86.28095 35835 ft 463 kts 303°
2026-05-08 23:40 17.33516 -86.33803 35833 ft 463 kts 303°
2026-05-08 23:40 17.36925 -86.39510 35830 ft 463 kts 303°
2026-05-08 23:41 17.40333 -86.45222 35831 ft 464 kts 303°
2026-05-08 23:41 17.43742 -86.50942 35836 ft 464 kts 303°
2026-05-08 23:42 17.47151 -86.56667 35835 ft 464 kts 303°
2026-05-08 23:42 17.50559 -86.62395 35835 ft 464 kts 303°
2026-05-08 23:43 17.53965 -86.68121 35836 ft 463 kts 302°
2026-05-08 23:43 17.57370 -86.73853 35840 ft 463 kts 302°
2026-05-08 23:44 17.60770 -86.79582 35841 ft 463 kts 302°
2026-05-08 23:44 17.64165 -86.85308 35843 ft 463 kts 302°
2026-05-08 23:45 17.67559 -86.91037 35842 ft 463 kts 302°
2026-05-08 23:45 17.70950 -86.96767 35844 ft 463 kts 302°
2026-05-08 23:46 17.74339 -87.02494 35846 ft 463 kts 302°
2026-05-08 23:46 17.77726 -87.08227 35847 ft 463 kts 302°
2026-05-08 23:47 17.81113 -87.13962 35845 ft 463 kts 302°
2026-05-08 23:47 17.84502 -87.19706 35847 ft 464 kts 302°
2026-05-08 23:48 17.87891 -87.25456 35849 ft 464 kts 302°
2026-05-08 23:48 17.91278 -87.31209 35848 ft 464 kts 302°
2026-05-08 23:49 17.94660 -87.36956 35848 ft 463 kts 302°
2026-05-08 23:49 17.98040 -87.42704 35849 ft 463 kts 302°
2026-05-08 23:50 18.01417 -87.48454 35848 ft 463 kts 302°
2026-05-08 23:50 18.04793 -87.54209 35850 ft 463 kts 302°
2026-05-08 23:51 18.08168 -87.59965 35850 ft 463 kts 302°
2026-05-08 23:51 18.11540 -87.65723 35851 ft 463 kts 302°
2026-05-08 23:52 18.14913 -87.71486 35853 ft 463 kts 301°
2026-05-08 23:52 18.18283 -87.77248 35850 ft 463 kts 301°
2026-05-08 23:53 18.21646 -87.83006 35842 ft 462 kts 301°
2026-05-08 23:53 18.25005 -87.88760 35840 ft 462 kts 301°
2026-05-08 23:54 18.28362 -87.94518 35835 ft 463 kts 301°
2026-05-08 23:55 18.33395 -88.03160 35832 ft 462 kts 301°
2026-05-08 23:55 18.36744 -88.08915 35834 ft 462 kts 301°
2026-05-08 23:56 18.40085 -88.14662 35837 ft 461 kts 301°
2026-05-08 23:56 18.43426 -88.20414 35837 ft 461 kts 301°
2026-05-08 23:57 18.46767 -88.26176 35837 ft 461 kts 301°
2026-05-08 23:57 18.50097 -88.31923 35840 ft 460 kts 301°
2026-05-08 23:58 18.53514 -88.37611 35841 ft 459 kts 303°
2026-05-08 23:58 18.57020 -88.43229 35844 ft 459 kts 303°
2026-05-08 23:59 18.60512 -88.48846 35846 ft 459 kts 303°
2026-05-08 23:59 18.63995 -88.54472 35845 ft 459 kts 302°
2026-05-09 00:00 18.67469 -88.60096 35844 ft 458 kts 302°
2026-05-09 00:00 18.70934 -88.65715 35845 ft 458 kts 302°
2026-05-09 00:01 18.74400 -88.71339 35843 ft 457 kts 302°
2026-05-09 00:01 18.77884 -88.76997 35837 ft 457 kts 302°
2026-05-09 00:02 18.81340 -88.82617 35836 ft 457 kts 302°
2026-05-09 00:02 18.84793 -88.88235 35831 ft 456 kts 302°
2026-05-09 00:03 18.88238 -88.93842 35825 ft 456 kts 302°
2026-05-09 00:03 18.91681 -88.99455 35819 ft 456 kts 302°
2026-05-09 00:04 18.95107 -89.05045 35822 ft 456 kts 302°
2026-05-09 00:04 18.98545 -89.10660 35818 ft 456 kts 302°
2026-05-09 00:05 19.01977 -89.16270 35819 ft 455 kts 302°
2026-05-09 00:05 19.05410 -89.21886 35815 ft 455 kts 301°
2026-05-09 00:06 19.08838 -89.27499 35811 ft 455 kts 301°
2026-05-09 00:06 19.12268 -89.33123 35814 ft 455 kts 301°
2026-05-09 00:07 19.15697 -89.38749 35811 ft 455 kts 301°
2026-05-09 00:07 19.19120 -89.44370 35811 ft 455 kts 301°
2026-05-09 00:08 19.22540 -89.49994 35805 ft 455 kts 301°
2026-05-09 00:08 19.25960 -89.55620 35804 ft 455 kts 301°
2026-05-09 00:09 19.29379 -89.61252 35806 ft 456 kts 301°
2026-05-09 00:09 19.32795 -89.66885 35802 ft 455 kts 301°
2026-05-09 00:10 19.36206 -89.72518 35799 ft 455 kts 301°
2026-05-09 00:10 19.39620 -89.78162 35801 ft 456 kts 301°
2026-05-09 00:11 19.43033 -89.83807 35794 ft 456 kts 301°
2026-05-09 00:11 19.46442 -89.89449 35793 ft 455 kts 301°
2026-05-09 00:12 19.49852 -89.95089 35794 ft 455 kts 301°
2026-05-09 00:12 19.53259 -90.00734 35798 ft 455 kts 301°
2026-05-09 00:13 19.56662 -90.06377 35787 ft 455 kts 301°
2026-05-09 00:13 19.60057 -90.12016 35766 ft 454 kts 301°
2026-05-09 00:14 19.63452 -90.17655 35752 ft 454 kts 301°
2026-05-09 00:14 19.66844 -90.23298 35747 ft 455 kts 301°
2026-05-09 00:15 19.70236 -90.28945 35745 ft 455 kts 301°
2026-05-09 00:15 19.73630 -90.34602 35745 ft 455 kts 301°
2026-05-09 00:16 19.77028 -90.40269 35751 ft 456 kts 301°
2026-05-09 00:16 19.80444 -90.45976 35755 ft 455 kts 301°
2026-05-09 00:17 19.83844 -90.51632 35758 ft 455 kts 302°
2026-05-09 00:17 19.87380 -90.57193 35756 ft 455 kts 302°
2026-05-09 00:18 19.90931 -90.62742 35754 ft 455 kts 302°
2026-05-09 00:18 19.94478 -90.68308 35754 ft 455 kts 302°
2026-05-09 00:19 19.98014 -90.73872 35752 ft 455 kts 302°
2026-05-09 00:19 20.01548 -90.79445 35759 ft 456 kts 302°
2026-05-09 00:20 20.05084 -90.85027 35764 ft 456 kts 302°
2026-05-09 00:20 20.08620 -90.90616 35766 ft 456 kts 302°
2026-05-09 00:21 20.12156 -90.96207 35771 ft 455 kts 302°
2026-05-09 00:21 20.15688 -91.01800 35771 ft 455 kts 302°
2026-05-09 00:22 20.19214 -91.07386 35774 ft 454 kts 302°
2026-05-09 00:22 20.22728 -91.12961 35774 ft 454 kts 302°
2026-05-09 00:23 20.26235 -91.18530 35774 ft 454 kts 302°
2026-05-09 00:23 20.29742 -91.24104 35776 ft 454 kts 302°
2026-05-09 00:24 20.33247 -91.29681 35780 ft 454 kts 302°
2026-05-09 00:24 20.36748 -91.35255 35778 ft 453 kts 302°
2026-05-09 00:25 20.40243 -91.40825 35776 ft 452 kts 302°
2026-05-09 00:25 20.43731 -91.46389 35771 ft 452 kts 302°
2026-05-09 00:26 20.47215 -91.51953 35764 ft 451 kts 302°
2026-05-09 00:26 20.50692 -91.57512 35763 ft 451 kts 302°
2026-05-09 00:27 20.54163 -91.63066 35763 ft 451 kts 302°
2026-05-09 00:27 20.57629 -91.68618 35763 ft 449 kts 302°
2026-05-09 00:28 20.61089 -91.74164 35764 ft 449 kts 302°
2026-05-09 00:28 20.64549 -91.79716 35765 ft 450 kts 302°
2026-05-09 00:29 20.68005 -91.85265 35764 ft 449 kts 302°
2026-05-09 00:29 20.71453 -91.90808 35767 ft 449 kts 302°
2026-05-09 00:30 20.74894 -91.96349 35766 ft 448 kts 302°
2026-05-09 00:30 20.78333 -92.01889 35765 ft 447 kts 302°
2026-05-09 00:31 20.81762 -92.07416 35768 ft 446 kts 302°
2026-05-09 00:31 20.85186 -92.12941 35766 ft 447 kts 302°
2026-05-09 00:32 20.88608 -92.18469 35765 ft 447 kts 302°
2026-05-09 00:32 20.92031 -92.24007 35767 ft 448 kts 301°
2026-05-09 00:33 20.95456 -92.29550 35771 ft 447 kts 302°
2026-05-09 00:33 20.98879 -92.35095 35781 ft 447 kts 301°
2026-05-09 00:34 21.02297 -92.40639 35788 ft 447 kts 301°
2026-05-09 00:34 21.05712 -92.46184 35790 ft 447 kts 301°
2026-05-09 00:35 21.09126 -92.51733 35790 ft 446 kts 301°
2026-05-09 00:35 21.12540 -92.57285 35791 ft 446 kts 301°
2026-05-09 00:36 21.15942 -92.62826 35793 ft 446 kts 301°
2026-05-09 00:36 21.19339 -92.68365 35794 ft 446 kts 301°
2026-05-09 00:37 21.22737 -92.73909 35793 ft 446 kts 301°
2026-05-09 00:37 21.26134 -92.79456 35794 ft 446 kts 301°
2026-05-09 00:38 21.29528 -92.85004 35795 ft 446 kts 301°
2026-05-09 00:38 21.32918 -92.90551 35796 ft 445 kts 301°
2026-05-09 00:39 21.36307 -92.96104 35795 ft 446 kts 301°
2026-05-09 00:39 21.39695 -93.01659 35795 ft 445 kts 301°
2026-05-09 00:40 21.43075 -93.07206 35792 ft 445 kts 301°
2026-05-09 00:40 21.46450 -93.12754 35786 ft 445 kts 301°
2026-05-09 00:41 21.51511 -93.21075 35785 ft 444 kts 300°
2026-05-09 00:41 21.54880 -93.26625 35786 ft 444 kts 300°
2026-05-09 00:42 21.58244 -93.32174 35786 ft 444 kts 300°
2026-05-09 00:42 21.61604 -93.37721 35782 ft 444 kts 300°
2026-05-09 00:43 21.64966 -93.43276 35777 ft 443 kts 300°
2026-05-09 00:43 21.68322 -93.48827 35778 ft 443 kts 300°
2026-05-09 00:44 21.71673 -93.54374 35779 ft 443 kts 300°
2026-05-09 00:44 21.75020 -93.59922 35781 ft 443 kts 300°
2026-05-09 00:45 21.78368 -93.65479 35785 ft 443 kts 300°
2026-05-09 00:45 21.81714 -93.71037 35787 ft 443 kts 300°
2026-05-09 00:46 21.85071 -93.76577 35787 ft 443 kts 300°
2026-05-09 00:46 21.88444 -93.82111 35786 ft 443 kts 300°
2026-05-09 00:47 21.91811 -93.87646 35788 ft 443 kts 300°
2026-05-09 00:47 21.95178 -93.93191 35788 ft 442 kts 300°
2026-05-09 00:48 21.98538 -93.98731 35789 ft 442 kts 300°
2026-05-09 00:48 22.01891 -94.04265 35789 ft 442 kts 300°
2026-05-09 00:49 22.05238 -94.09794 35786 ft 441 kts 300°
2026-05-09 00:49 22.08582 -94.15325 35799 ft 441 kts 300°
2026-05-09 00:50 22.11924 -94.20860 35795 ft 441 kts 300°
2026-05-09 00:50 22.15263 -94.26394 35794 ft 441 kts 300°
2026-05-09 00:51 22.18599 -94.31930 35787 ft 441 kts 300°
2026-05-09 00:51 22.21936 -94.37472 35792 ft 441 kts 300°
2026-05-09 00:52 22.25267 -94.43011 35791 ft 440 kts 300°
2026-05-09 00:52 22.28595 -94.48550 35791 ft 440 kts 300°
2026-05-09 00:53 22.31918 -94.54084 35787 ft 440 kts 300°
2026-05-09 00:53 22.35242 -94.59630 35783 ft 441 kts 300°
2026-05-09 00:54 22.38567 -94.65179 35781 ft 440 kts 299°
2026-05-09 00:54 22.41886 -94.70730 35782 ft 440 kts 299°
2026-05-09 00:55 22.45201 -94.76276 35782 ft 439 kts 299°
2026-05-09 00:55 22.48511 -94.81820 35780 ft 440 kts 299°
2026-05-09 00:56 22.51843 -94.87407 35781 ft 439 kts 299°
2026-05-09 00:56 22.55147 -94.92954 35779 ft 439 kts 299°
2026-05-09 00:57 22.58451 -94.98506 35779 ft 439 kts 299°
2026-05-09 00:57 22.61752 -95.04055 35780 ft 439 kts 299°
2026-05-09 00:58 22.65050 -95.09607 35779 ft 439 kts 299°
2026-05-09 00:58 22.68347 -95.15163 35779 ft 439 kts 299°
2026-05-09 00:59 22.71640 -95.20719 35779 ft 439 kts 299°
2026-05-09 00:59 22.74929 -95.26279 35780 ft 439 kts 299°
2026-05-09 01:00 22.78217 -95.31838 35781 ft 439 kts 299°
2026-05-09 01:00 22.81503 -95.37402 35782 ft 439 kts 299°
2026-05-09 01:01 22.84787 -95.42966 35785 ft 439 kts 299°
2026-05-09 01:01 22.88066 -95.48530 35787 ft 439 kts 299°
2026-05-09 01:02 22.91340 -95.54090 35787 ft 438 kts 298°
2026-05-09 01:02 22.94611 -95.59653 35787 ft 438 kts 298°
2026-05-09 01:03 22.97883 -95.65221 35788 ft 438 kts 298°
2026-05-09 01:03 23.01151 -95.70792 35788 ft 438 kts 298°
2026-05-09 01:04 23.04416 -95.76362 35788 ft 438 kts 298°
2026-05-09 01:04 23.07679 -95.81934 35788 ft 438 kts 298°
2026-05-09 01:05 23.10941 -95.87511 35787 ft 438 kts 298°
2026-05-09 01:06 23.15828 -95.95878 35788 ft 438 kts 298°
2026-05-09 01:06 23.19086 -96.01458 35788 ft 438 kts 298°
2026-05-09 01:07 23.22338 -96.07036 35781 ft 438 kts 298°
2026-05-09 01:07 23.25586 -96.12612 35771 ft 437 kts 298°
2026-05-09 01:08 23.28826 -96.18185 35764 ft 436 kts 298°
2026-05-09 01:08 23.32061 -96.23752 35760 ft 436 kts 298°
2026-05-09 01:09 23.35295 -96.29325 35764 ft 436 kts 298°
2026-05-09 01:09 23.38521 -96.34892 35763 ft 435 kts 298°
2026-05-09 01:10 23.41746 -96.40461 35761 ft 436 kts 297°
2026-05-09 01:10 23.44972 -96.46041 35764 ft 436 kts 297°
2026-05-09 01:11 23.48193 -96.51616 35768 ft 435 kts 297°
2026-05-09 01:11 23.51411 -96.57194 35768 ft 436 kts 298°
2026-05-09 01:12 23.54626 -96.62769 35770 ft 435 kts 297°
2026-05-09 01:12 23.57840 -96.68349 35772 ft 435 kts 297°
2026-05-09 01:13 23.61043 -96.73920 35771 ft 434 kts 297°
2026-05-09 01:13 23.64240 -96.79487 35768 ft 434 kts 297°
2026-05-09 01:14 23.67437 -96.85059 35771 ft 434 kts 297°
2026-05-09 01:14 23.70649 -96.90625 35769 ft 434 kts 298°
2026-05-09 01:15 23.73996 -96.96104 35764 ft 435 kts 298°
2026-05-09 01:15 23.77356 -97.01578 35767 ft 434 kts 298°
2026-05-09 01:16 23.80699 -97.07046 35767 ft 434 kts 298°
2026-05-09 01:16 23.84033 -97.12515 35765 ft 434 kts 298°
2026-05-09 01:17 23.89029 -97.20731 35762 ft 433 kts 298°
2026-05-09 01:17 23.92354 -97.26205 35761 ft 432 kts 298°
2026-05-09 01:18 23.95668 -97.31670 35755 ft 433 kts 298°
2026-05-09 01:18 23.98980 -97.37138 35749 ft 431 kts 298°
2026-05-09 01:19 24.02283 -97.42596 35745 ft 431 kts 298°
2026-05-09 01:19 24.05585 -97.48058 35746 ft 432 kts 298°
2026-05-09 01:20 24.08887 -97.53526 35748 ft 431 kts 298°
2026-05-09 01:20 24.12180 -97.58986 35747 ft 431 kts 298°
2026-05-09 01:21 24.15474 -97.64452 35740 ft 430 kts 298°
2026-05-09 01:21 24.18762 -97.69916 35738 ft 430 kts 298°
2026-05-09 01:22 24.22044 -97.75374 35739 ft 430 kts 297°
2026-05-09 01:22 24.25324 -97.80840 35739 ft 429 kts 297°
2026-05-09 01:23 24.28603 -97.86303 35737 ft 430 kts 297°
2026-05-09 01:23 24.31881 -97.91774 35739 ft 430 kts 297°
2026-05-09 01:24 24.35152 -97.97240 35744 ft 430 kts 298°
2026-05-09 01:24 24.38419 -98.02708 35752 ft 429 kts 297°
2026-05-09 01:25 24.41683 -98.08172 35753 ft 430 kts 297°
2026-05-09 01:25 24.44947 -98.13644 35757 ft 429 kts 297°
2026-05-09 01:26 24.48211 -98.19119 35760 ft 430 kts 297°
2026-05-09 01:26 24.51473 -98.24603 35765 ft 430 kts 297°
2026-05-09 01:27 24.54735 -98.30087 35761 ft 431 kts 297°
2026-05-09 01:27 24.58001 -98.35592 35763 ft 431 kts 297°
2026-05-09 01:28 24.61271 -98.41104 35763 ft 432 kts 297°
2026-05-09 01:28 24.64544 -98.46628 35763 ft 431 kts 297°
2026-05-09 01:29 24.67767 -98.52065 35763 ft 412 kts 297°
2026-05-09 01:29 24.70850 -98.57272 35782 ft 406 kts 297°
2026-05-09 01:30 24.73921 -98.62483 35793 ft 407 kts 297°
2026-05-09 01:30 24.75457 -98.65092 35608 ft 406 kts 296°
2026-05-09 01:30 24.76992 -98.67691 35361 ft 404 kts 296°
2026-05-09 01:31 24.78512 -98.70272 35140 ft 402 kts 296°
2026-05-09 01:31 24.80027 -98.72845 34743 ft 401 kts 297°
2026-05-09 01:31 24.81531 -98.75397 34329 ft 396 kts 296°
2026-05-09 01:31 24.83018 -98.77927 33735 ft 394 kts 296°
2026-05-09 01:32 24.84498 -98.80447 33168 ft 391 kts 297°
2026-05-09 01:32 24.85966 -98.82942 32700 ft 387 kts 297°
2026-05-09 01:32 24.87422 -98.85419 32279 ft 385 kts 297°
2026-05-09 01:32 24.88868 -98.87882 31860 ft 383 kts 297°
2026-05-09 01:33 24.90307 -98.90331 31451 ft 381 kts 297°
2026-05-09 01:33 24.91733 -98.92766 31093 ft 377 kts 297°
2026-05-09 01:33 24.93148 -98.95180 30723 ft 375 kts 297°
2026-05-09 01:33 24.94554 -98.97580 30345 ft 373 kts 297°
2026-05-09 01:34 24.95956 -98.99970 29878 ft 371 kts 297°
2026-05-09 01:34 24.97345 -99.02344 29440 ft 367 kts 298°
2026-05-09 01:34 24.98717 -99.04688 29085 ft 364 kts 297°
2026-05-09 01:34 25.00083 -99.07025 28632 ft 362 kts 297°
2026-05-09 01:35 25.01438 -99.09339 28248 ft 360 kts 297°
2026-05-09 01:35 25.02785 -99.11639 27833 ft 357 kts 297°
2026-05-09 01:35 25.04119 -99.13923 27414 ft 354 kts 297°
2026-05-09 01:35 25.05443 -99.16199 27001 ft 352 kts 297°
2026-05-09 01:36 25.06761 -99.18455 26583 ft 351 kts 297°
2026-05-09 01:36 25.08072 -99.20704 26152 ft 348 kts 297°
2026-05-09 01:36 25.09374 -99.22939 25739 ft 346 kts 297°
2026-05-09 01:36 25.10664 -99.25158 25366 ft 343 kts 297°
2026-05-09 01:37 25.11947 -99.27358 24964 ft 342 kts 297°
2026-05-09 01:37 25.13223 -99.29552 24543 ft 340 kts 297°
2026-05-09 01:37 25.14494 -99.31735 24132 ft 338 kts 297°
2026-05-09 01:37 25.15757 -99.33908 23726 ft 336 kts 297°
2026-05-09 01:38 25.17011 -99.36070 23316 ft 334 kts 297°
2026-05-09 01:38 25.18260 -99.38217 22915 ft 332 kts 297°
2026-05-09 01:38 25.19513 -99.40349 22514 ft 332 kts 300°
2026-05-09 01:38 25.21077 -99.42242 22150 ft 338 kts 313°
2026-05-09 01:39 25.23036 -99.43712 21774 ft 345 kts 326°
2026-05-09 01:39 25.25198 -99.44873 21367 ft 346 kts 328°
2026-05-09 01:39 25.27372 -99.45988 20950 ft 344 kts 328°
2026-05-09 01:39 25.29537 -99.47093 20531 ft 342 kts 328°
2026-05-09 01:40 25.31684 -99.48194 20144 ft 339 kts 328°
2026-05-09 01:40 25.33810 -99.49287 19748 ft 336 kts 328°
2026-05-09 01:40 25.35920 -99.50376 19356 ft 333 kts 328°
2026-05-09 01:40 25.38010 -99.51459 18964 ft 330 kts 328°
2026-05-09 01:41 25.40086 -99.52535 18548 ft 328 kts 328°
2026-05-09 01:41 25.42154 -99.53610 18094 ft 328 kts 328°
2026-05-09 01:41 25.44242 -99.54694 17685 ft 326 kts 328°
2026-05-09 01:41 25.46289 -99.55754 17283 ft 324 kts 328°
2026-05-09 01:42 25.48324 -99.56811 16886 ft 320 kts 328°
2026-05-09 01:42 25.50336 -99.57855 16846 ft 320 kts 328°
2026-05-09 01:42 25.52363 -99.58910 16880 ft 321 kts 328°
2026-05-09 01:42 25.54385 -99.59961 16928 ft 321 kts 328°
2026-05-09 01:43 25.56412 -99.61015 16927 ft 321 kts 328°
2026-05-09 01:43 25.58439 -99.62069 16912 ft 321 kts 327°
2026-05-09 01:43 25.60467 -99.63125 16909 ft 322 kts 328°
2026-05-09 01:43 25.62497 -99.64182 16909 ft 322 kts 328°
2026-05-09 01:44 25.64529 -99.65240 16918 ft 322 kts 327°
2026-05-09 01:44 25.66558 -99.66297 16912 ft 322 kts 327°
2026-05-09 01:44 25.68590 -99.67358 16912 ft 323 kts 327°
2026-05-09 01:44 25.70624 -99.68417 16917 ft 323 kts 327°
2026-05-09 01:45 25.72658 -99.69478 16916 ft 323 kts 327°
2026-05-09 01:45 25.74690 -99.70538 16920 ft 322 kts 327°
2026-05-09 01:45 25.76660 -99.71697 16907 ft 316 kts 317°
2026-05-09 01:45 25.78252 -99.73300 16929 ft 305 kts 303°
2026-05-09 01:46 25.79456 -99.75211 16937 ft 302 kts 296°
2026-05-09 01:46 25.80575 -99.77179 16923 ft 302 kts 295°
2026-05-09 01:46 25.81677 -99.79132 16929 ft 302 kts 295°
2026-05-09 01:46 25.82796 -99.81100 16938 ft 301 kts 296°
2026-05-09 01:47 25.83909 -99.83042 16733 ft 297 kts 296°
2026-05-09 01:47 25.85014 -99.84975 16262 ft 298 kts 296°
2026-05-09 01:47 25.86120 -99.86907 15827 ft 297 kts 296°
2026-05-09 01:47 25.87222 -99.88831 15431 ft 295 kts 296°
2026-05-09 01:48 25.88316 -99.90742 15039 ft 293 kts 297°
2026-05-09 01:48 25.89401 -99.92638 14667 ft 290 kts 297°
2026-05-09 01:48 25.90476 -99.94518 14339 ft 287 kts 297°
2026-05-09 01:48 25.91545 -99.96389 14133 ft 288 kts 297°
2026-05-09 01:49 25.92615 -99.98260 13946 ft 287 kts 296°
2026-05-09 01:49 25.93681 -100.00125 13621 ft 285 kts 297°
2026-05-09 01:49 25.94737 -100.01973 13283 ft 282 kts 297°
2026-05-09 01:49 25.95784 -100.03806 12923 ft 281 kts 297°
2026-05-09 01:50 25.96825 -100.05632 12557 ft 280 kts 297°
2026-05-09 01:50 25.97868 -100.07463 12139 ft 281 kts 297°
2026-05-09 01:50 25.98909 -100.09288 11731 ft 280 kts 298°
2026-05-09 01:50 25.99952 -100.11118 11287 ft 281 kts 298°
2026-05-09 01:51 26.00996 -100.12949 10859 ft 281 kts 298°
2026-05-09 01:51 26.02039 -100.14780 10444 ft 281 kts 298°
2026-05-09 01:51 26.03080 -100.16608 10039 ft 280 kts 298°
2026-05-09 01:51 26.04117 -100.18434 9633 ft 280 kts 298°
2026-05-09 01:52 26.04901 -100.20372 9163 ft 272 kts 276°
2026-05-09 01:52 26.04661 -100.22353 8748 ft 256 kts 242°
2026-05-09 01:52 26.03480 -100.23714 8437 ft 241 kts 210°
2026-05-09 01:52 26.02004 -100.24483 8179 ft 228 kts 205°
2026-05-09 01:53 26.00595 -100.25191 7898 ft 216 kts 206°
2026-05-09 01:53 25.99287 -100.25930 7630 ft 205 kts 208°
2026-05-09 01:53 25.98066 -100.26680 7379 ft 195 kts 209°
2026-05-09 01:53 25.96901 -100.27428 7017 ft 193 kts 209°
2026-05-09 01:54 25.95773 -100.28172 6715 ft 184 kts 209°
2026-05-09 01:54 25.94675 -100.28902 6302 ft 185 kts 208°
2026-05-09 01:54 25.93567 -100.29642 5880 ft 187 kts 208°
2026-05-09 01:54 25.92467 -100.30378 5575 ft 182 kts 208°
2026-05-09 01:55 25.91378 -100.31046 5274 ft 175 kts 197°
2026-05-09 01:55 25.90206 -100.31177 4972 ft 166 kts 170°
2026-05-09 01:55 25.89195 -100.30670 4675 ft 157 kts 140°
2026-05-09 01:55 25.88452 -100.29811 4383 ft 152 kts 127°
2026-05-09 01:56 25.87846 -100.28867 4089 ft 148 kts 122°
2026-05-09 01:56 25.87301 -100.27921 3918 ft 144 kts 120°
2026-05-09 01:56 25.86771 -100.26971 3922 ft 145 kts 120°
2026-05-09 01:56 25.86246 -100.26019 3916 ft 145 kts 120°
2026-05-09 01:57 25.85720 -100.25062 3916 ft 145 kts 120°
2026-05-09 01:57 25.85193 -100.24101 3923 ft 146 kts 119°
2026-05-09 01:57 25.84663 -100.23134 3810 ft 147 kts 119°
2026-05-09 01:57 25.84135 -100.22170 3588 ft 146 kts 118°
2026-05-09 01:58 25.83612 -100.21215 3365 ft 145 kts 118°
2026-05-09 01:58 25.83090 -100.20261 3149 ft 144 kts 118°
2026-05-09 01:58 25.82569 -100.19309 2935 ft 144 kts 118°
2026-05-09 01:58 25.82048 -100.18359 2725 ft 144 kts 118°
2026-05-09 01:59 25.81528 -100.17412 2496 ft 143 kts 120°
2026-05-09 01:59 25.81014 -100.16482 2261 ft 139 kts 120°
2026-05-09 01:59 25.80518 -100.15575 2044 ft 136 kts 120°
2026-05-09 01:59 25.80025 -100.14672 1855 ft 138 kts 120°
2026-05-09 02:00 25.79528 -100.13767 1669 ft 138 kts 121°
2026-05-09 02:00 25.79022 -100.12841 1489 ft 142 kts 121°
2026-05-09 02:00 25.78508 -100.11906 1336 ft 140 kts 120°
2026-05-09 02:00 25.78026 -100.11021 1276 ft 118 kts 120°
2026-05-09 02:01 25.77755 -100.10528 1267 ft 31 kts 123°
2026-05-09 02:01 25.77710 -100.10448 1266 ft 33 kts 122°
2026-05-09 02:01 25.77578 -100.10208 1261 ft 35 kts 121°
2026-05-09 02:01 25.77457 -100.09981 1257 ft 33 kts 122°
2026-05-09 02:02 25.77346 -100.09782 1254 ft 12 kts 122°
2026-05-09 02:02 25.77286 -100.09710 1253 ft 13 kts 157°
2026-05-09 02:02 25.77196 -100.09731 1253 ft 13 kts 211°
2026-05-09 02:02 25.77158 -100.09815 1254 ft 13 kts 284°
2026-05-09 02:03 25.77197 -100.09904 1255 ft 12 kts 298°
2026-05-09 02:03 25.77239 -100.09985 1257 ft 11 kts 301°
2026-05-09 02:03 25.77282 -100.10062 1258 ft 11 kts 302°
2026-05-09 02:03 25.77324 -100.10136 1259 ft 11 kts 302°
2026-05-09 02:04 25.77365 -100.10207 1260 ft 10 kts 302°
2026-05-09 02:04 25.77426 -100.10317 1262 ft 37 kts 301°
2026-05-09 02:04 25.77559 -100.10558 1267 ft 34 kts 301°
2026-05-09 02:04 25.77678 -100.10777 1270 ft 31 kts 301°
2026-05-09 02:05 25.77785 -100.10972 1275 ft 27 kts 301°
2026-05-09 02:05 25.77881 -100.11148 1277 ft 25 kts 301°
2026-05-09 02:05 25.77917 -100.11216 1279 ft 5 kts 285°
2026-05-09 02:05 25.77908 -100.11237 1279 ft 2 kts 234°
2026-05-09 02:06 25.77900 -100.11247 1279 ft 1 kts 213°
2026-05-09 02:06 25.77888 -100.11256 1280 ft 2 kts 218°
2026-05-09 02:06 25.77876 -100.11267 1280 ft 2 kts 216°
2026-05-09 02:07 25.77860 -100.11279 1280 ft 0 kts 213°
2026-05-09 02:07 25.77856 -100.11282 1280 ft 0 kts 213°